Phoenix-Mesa Gateway Airport, AZ

2:08 AM MST on June 27, 2017 (GMT -0700)
Phoenix-Mesa Gateway Airport

Weather History for KIWA - March, 2013

Change the Weather History Date:

Friday, March 1, 2013

  Actual Average Record
Temperature  
Mean Temperature 56 °F -  
Max Temperature 75 °F 67 °F 87 °F (2009)
Min Temperature 37 °F 44 °F 35 °F (2007)
Degree Days  
Heating Degree Days 9    
Growing Degree Days 6 (Base 50)    
Moisture  
Dew Point 25 °F    
Average Humidity 37    
Maximum Humidity 57    
Minimum Humidity 12    
Precipitation  
Precipitation 0.00 in - - ()
Sea Level Pressure  
Sea Level Pressure 30.28 in    
Wind  
Wind Speed 5 mph (East)    
Max Wind Speed 8 mph    
Max Gust Speed 10 mph    
Visibility 12 miles    
Events      
Averages and records for this station are not official NWS values.
T = Trace of Precipitation, MM = Missing Value Source: NWS Daily Summary

Daily Weather History Graph

Daily Weather History Graph

Search for Another Location

Airport or City:

Trip Planner

Search our weather history database for the weather conditions in past years. The results will help you decide how hot, cold, wet, or windy it might be!

Date:

Astronomy

Mar. 01, 2013 Rise Set
Actual Time 6:54 AM MST 6:23 PM MST
Civil Twilight 6:29 AM MST 6:48 PM MST
Nautical Twilight 6:00 AM MST 7:17 PM MST
Astronomical Twilight 5:32 AM MST 7:46 PM MST
Moon 10:44 PM MST (3/1) 8:58 AM MST (3/1)
Length of Visible Light 12h 19m
Length of Day
11h 29m
Waning Gibbous, 83% of the Moon is Illuminated
Mar 1
Waning Gibbous
Mar 4
Last Quarter
Mar 11
New
Mar 19
First Quarter
Mar 27
Full

Hourly Weather History & Observations

Time (MST) Temp. Windchill Dew Point Humidity Pressure Visibility Wind Dir Wind Speed Gust Speed Precip Events Conditions
12:15 AM 44.6 °F 40.7 °F 23.0 °F 43% 30.33 in 10.0 mi ESE 6.9 mph - N/A   Clear
12:35 AM 42.8 °F 40.1 °F 23.0 °F 46% 30.34 in 10.0 mi East 4.6 mph - N/A   Clear
12:55 AM 42.8 °F 39.3 °F 23.0 °F 46% 30.34 in 10.0 mi ENE 5.8 mph - N/A   Clear
1:15 AM 42.8 °F 38.6 °F 23.0 °F 46% 30.34 in 10.0 mi East 6.9 mph - N/A   Clear
1:35 AM 41.0 °F 38.0 °F 26.6 °F 57% 30.33 in 10.0 mi ESE 4.6 mph - N/A   Clear
1:55 AM 42.8 °F 39.3 °F 24.8 °F 49% 30.33 in 10.0 mi ESE 5.8 mph - N/A   Clear
2:15 AM 42.8 °F 39.3 °F 24.8 °F 49% 30.32 in 10.0 mi ESE 5.8 mph - N/A   Clear
2:35 AM 42.8 °F 38.6 °F 24.8 °F 49% 30.31 in 10.0 mi ESE 6.9 mph 10.4 mph N/A   Clear
2:55 AM 41.0 °F 36.4 °F 26.6 °F 57% 30.30 in 10.0 mi East 6.9 mph - N/A   Clear
3:15 AM 42.8 °F 39.3 °F 23.0 °F 46% 30.30 in 10.0 mi ESE 5.8 mph - N/A   Clear
3:35 AM 41.0 °F 36.4 °F 23.0 °F 49% 30.30 in 10.0 mi SE 6.9 mph - N/A   Clear
3:55 AM 41.0 °F - 23.0 °F 49% 30.31 in 10.0 mi Calm Calm - N/A   Clear
4:15 AM 41.0 °F - 23.0 °F 49% 30.31 in 10.0 mi Calm Calm - N/A   Clear
4:35 AM 42.8 °F 41.1 °F 23.0 °F 46% 30.31 in 10.0 mi West 3.5 mph - N/A   Clear
4:55 AM 41.0 °F - 24.8 °F 53% 30.31 in 10.0 mi Calm Calm - N/A   Clear
5:15 AM 42.8 °F - 23.0 °F 46% 30.31 in 10.0 mi Calm Calm - N/A   Clear
5:47 AM 39.2 °F 35.0 °F 23.0 °F 52% 30.31 in 20.0 mi ESE 5.8 mph - N/A   Clear
6:50 AM 37.4 °F 31.4 °F 21.2 °F 52% 30.33 in 20.0 mi ENE 8.1 mph - N/A   Clear
7:47 AM 39.2 °F 37.0 °F 24.8 °F 56% 30.34 in 45.0 mi Variable 3.5 mph - N/A   Clear
8:47 AM 48.2 °F - 26.6 °F 43% 30.35 in 45.0 mi Variable 4.6 mph - N/A   Clear
9:50 AM 57.2 °F - 21.2 °F 25% 30.36 in 45.0 mi NNW 4.6 mph - N/A   Clear
11:47 AM 66.2 °F - 21.2 °F 18% 30.34 in 45.0 mi Calm Calm - N/A   Clear
12:47 PM 71.6 °F - 17.6 °F 13% 30.29 in 45.0 mi Calm Calm - N/A   Clear
1:47 PM 73.4 °F - 21.2 °F 14% 30.26 in 45.0 mi West 8.1 mph - N/A   Clear
3:47 PM 75.2 °F - 19.4 °F 12% 30.22 in 45.0 mi NW 5.8 mph - N/A   Clear
4:47 PM 75.2 °F - 19.4 °F 12% 30.21 in 30.0 mi WNW 6.9 mph - N/A   Clear
5:47 PM 73.4 °F - 21.2 °F 14% 30.21 in 30.0 mi WNW 5.8 mph - N/A   Clear
6:47 PM 71.6 °F - 24.8 °F 17% 30.21 in 20.0 mi NW 4.6 mph - N/A   Clear
7:47 PM 71.6 °F - 23.0 °F 16% 30.22 in 20.0 mi Calm Calm - N/A   Clear
7:55 PM 69.8 °F - 23.0 °F 17% 30.23 in 10.0 mi NNW 3.5 mph - N/A   Clear
8:15 PM 64.4 °F - 23.0 °F 21% 30.23 in 10.0 mi NNW 3.5 mph - N/A   Clear
8:35 PM 62.6 °F - 26.6 °F 26% 30.24 in 10.0 mi Calm Calm - N/A   Clear
8:47 PM 66.2 °F - 24.8 °F 21% 30.24 in 20.0 mi Calm Calm - N/A   Clear
8:55 PM 64.4 °F - 23.0 °F 21% 30.24 in 10.0 mi Calm Calm - N/A   Clear
9:15 PM 59.0 °F - 28.4 °F 31% 30.24 in 10.0 mi Calm Calm - N/A   Clear
9:35 PM 55.4 °F - 32.0 °F 41% 30.25 in 10.0 mi SE 5.8 mph - N/A   Clear
9:55 PM 59.0 °F - 30.2 °F 34% 30.25 in 10.0 mi Calm Calm - N/A   Clear
10:15 PM 57.2 °F - 32.0 °F 38% 30.25 in 10.0 mi Calm Calm - N/A   Clear
10:35 PM 53.6 °F - 30.2 °F 41% 30.25 in 10.0 mi East 4.6 mph - N/A   Clear
10:55 PM 53.6 °F - 30.2 °F 41% 30.25 in 10.0 mi East 6.9 mph - N/A   Clear
11:15 PM 51.8 °F - 32.0 °F 47% 30.25 in 10.0 mi ESE 4.6 mph - N/A   Clear
11:35 PM 51.8 °F - 32.0 °F 47% 30.25 in 10.0 mi ESE 8.1 mph - N/A   Clear
11:55 PM 51.8 °F - 32.0 °F 47% 30.25 in 10.0 mi ESE 5.8 mph - N/A   Clear